Torna al catalogo

CZ-6A DEB

AttivoSSO
NORAD 56245·DEBRIS·🇨🇳 China

Lanciato Nov 11, 2022 da Taiyuan Satellite Launch Center

Loading…

Prossimi Passaggi (prossime 24 ore)

TLE

AggiornatoSource: Space-Track

Epoca: Sep 14, 2026, 11:34 UTC

1 56245U 22151ABM 26257.48236310  .00003499  00000-0  14977-2 0  9997
2 56245  98.8120 265.7756 0048074  41.3369 319.1432 14.24919934184595

Traccia CZ-6A DEB in tempo reale con AllMySat

Download on the App Store